This is the latest recevied weather packets stored in our database for station/object SP9EPI-13. If no packets are shown the sender has not sent any weather packets the latest 1 day(s).
| Time | Temp. | Humidity | Pressure | Rain* | Wind** | Luminosity | Snow |
|---|---|---|---|---|---|---|---|
| 1778019000 | 15° C | 53% | 1003 hPa | - | 0.89 m/s, 160° | - | - |
| 1778018401 | 15° C | 54% | 1003 hPa | - | 0.89 m/s, 175° | - | - |
| 1778017800 | 16.11° C | 53% | 1003 hPa | - | 3.13 m/s, 185° | - | - |
| 1778017200 | 17.78° C | 46% | 1003 hPa | - | 0.89 m/s, 133° | - | - |
| 1778016600 | 17.78° C | 41% | 1003 hPa | - | 4.02 m/s, 175° | - | - |
| 1778016000 | 17.78° C | 41% | 1003 hPa | - | 4.02 m/s, 180° | - | - |
| 1778015400 | 17.78° C | 43% | 1003 hPa | - | 3.13 m/s, 189° | - | - |
| 1778014800 | 17.78° C | 43% | 1003 hPa | - | 1.79 m/s, 180° | - | - |
| 1778014200 | 18.89° C | 42% | 1003 hPa | - | 3.13 m/s, 168° | - | - |
| 1778013000 | 18.89° C | 42% | 1003 hPa | - | 0.89 m/s, 176° | - | - |
| 1778012400 | 18.89° C | 39% | 1003 hPa | - | 1.79 m/s, 177° | - | - |
| 1778011800 | 18.89° C | 37% | 1003 hPa | - | 4.02 m/s, 175° | - | - |
| 1778011200 | 20° C | 37% | 1003.3 hPa | - | 3.13 m/s, 162° | - | - |
| 1778010600 | 20° C | 36% | 1003 hPa | - | 4.92 m/s, 190° | - | - |
| 1778010001 | 20° C | 36% | 1003 hPa | - | 4.02 m/s, 192° | - | - |
| 1778009400 | 18.89° C | 36% | 1003 hPa | - | 4.92 m/s, 184° | - | - |
| 1778008800 | 18.89° C | 37% | 1003 hPa | - | 4.92 m/s, 176° | - | - |
| 1778008200 | 18.89° C | 37% | 1003 hPa | - | 4.92 m/s, 182° | - | - |
| 1778007600 | 18.89° C | 37% | 1003 hPa | - | 3.13 m/s, 197° | - | - |
| 1778007000 | 20° C | 35% | 1003 hPa | - | 4.02 m/s, 169° | - | - |
| 1778006400 | 21.11° C | 34% | 1003 hPa | - | 4.02 m/s, 182° | - | - |
| 1778005800 | 21.11° C | 33% | 1003 hPa | - | 4.92 m/s, 208° | - | - |
| 1778005200 | 21.11° C | 33% | 1003 hPa | - | 4.02 m/s, 197° | - | - |
| 1778004601 | 22.22° C | 32% | 1002.7 hPa | - | 3.13 m/s, 188° | - | - |
| 1778004001 | 22.22° C | 32% | 1002.7 hPa | - | 4.92 m/s, 210° | - | - |
* Rain since midnight (hover to see other rain measurements)
** Current wind speed in m/s (hover to see current wind gust speed)